Location: ??????
(33.3472°N, 35.4764°E)
Time: 07:11:23
(UTC+00:00)

RUBIN 8/PSLV - Pass Details

Date: 21 August 2019
Orbit: 610 x 650 km, 97.8° (Epoch: 17 September)

Event Time Altitude Azimuth Distance (km) Brightness Sun altitude
Rises 01:07:57 0° 10° (N) 2,879 8.6 -23.0°
Reaches altitude 10° 01:10:08 10° 9° (N) 1,969 7.7 -22.6°
Maximum altitude 01:14:25 80° 283° (WNW) 623 4.4 -21.8°
Enters shadow 01:15:02 63° 214° (SW) 679 4.4 -21.7°
